Weather reports worldwide

Advertisment
Damaskus/Intl, Syria (40080): temperature & dewpoint: 17.05.2018 12:00:00 - 23.05.2018 12:00:00 (EEST)Damaskus/Intl, Syria (40080): wind speed: 17.05.2018 12:00:00 - 23.05.2018 12:00:00 (EEST)Damaskus/Intl, Syria (40080): wind direction: 17.05.2018 12:00:00 - 23.05.2018 12:00:00 (EEST)Damaskus/Intl, Syria (40080): reduced air pressure: 17.05.2018 12:00:00 - 23.05.2018 12:00:00 (EEST)Damaskus/Intl, Syria (40080): visibility: 17.05.2018 12:00:00 - 23.05.2018 12:00:00 (EEST)
Date & Time tt [°C] td [°C] ff [km/h] ff [kn] dd ppp [hPa] vv [km]
23.05.2018 12:00:00 34,0 -5,0 29 16 WNW - 10
23.05.2018 11:00:00 33,0 -2,0 18 10 WNW - 10
23.05.2018 10:00:00 30,0 1,0 15 8 SW - 10
23.05.2018 09:00:00 27,0 9,6 8 4 W 1010,1 10
23.05.2018 08:00:00 24,0 7,0 4 2 NNW - 10
23.05.2018 07:00:00 21,0 7,0 8 4 WNW - 10
23.05.2018 06:00:00 20,0 8,4 4 2 NW 1009,4 10
23.05.2018 05:00:00 20,0 5,0 8 4 N - 10
23.05.2018 04:00:00 21,0 6,0 4 2 E - 10
23.05.2018 03:00:00 21,0 9,0 11 6 NNE 1009,8 10
23.05.2018 02:00:00 22,0 5,0 18 10 SSW - 8
23.05.2018 01:00:00 22,0 7,1 8 4 S - 10
23.05.2018 00:00:00 23,0 4,0 8 4 S - 10
22.05.2018 23:00:00 24,0 3,0 4 2 W - 10
22.05.2018 22:00:00 26,0 3,0 4 2 WNW - 10
22.05.2018 21:00:00 27,0 7,0 11 6 W 1011,2 10
22.05.2018 20:00:00 29,0 4,0 11 6 WNW - 10
22.05.2018 19:00:00 31,0 7,0 15 8 W - 10
22.05.2018 18:00:00 34,2 8,0 11 6 WSW 1011,1 10
22.05.2018 17:00:00 33,0 2,0 4 2 NW - 10
22.05.2018 16:00:00 33,0 2,0 4 2 WNW - 10
22.05.2018 15:00:00 33,0 7,7 11 6 ENE 1012,4 10
22.05.2018 14:00:00 33,0 2,0 11 6 ENE - 10
22.05.2018 13:00:00 33,0 0,0 8 4 NW - 10
22.05.2018 12:00:00 32,2 8,7 8 4 NNE 1012,7 10
22.05.2018 11:00:00 30,0 3,0 11 6 W - 10
22.05.2018 10:00:00 29,0 4,0 8 4 WSW - 10
22.05.2018 09:00:00 27,0 3,8 11 6 SW 1013,0 10
22.05.2018 08:00:00 24,0 6,0 8 4 S - 10
22.05.2018 07:00:00 23,0 4,0 8 4 S - 10
22.05.2018 06:00:00 20,9 4,1 8 4 SSW 1011,3 10
22.05.2018 05:00:00 21,0 4,0 8 4 W - 10
22.05.2018 04:00:00 22,0 3,0 11 6 WSW - 10
22.05.2018 03:00:00 23,0 4,0 15 8 W - 10
22.05.2018 02:00:00 22,0 4,0 15 8 W - 10
22.05.2018 01:00:00 23,0 4,0 18 10 WNW - 10
22.05.2018 00:00:00 23,0 4,0 15 8 W - 10
21.05.2018 23:00:00 25,0 5,0 18 10 W - 10
21.05.2018 22:00:00 26,0 4,0 18 10 WNW - 10
21.05.2018 21:00:00 27,4 2,1 15 8 WNW 1010,2 10
21.05.2018 20:00:00 29,0 1,0 18 10 WNW - 10
21.05.2018 19:00:00 31,0 1,0 18 10 WNW - 10
21.05.2018 18:00:00 33,0 1,0 22 12 WNW - 10
21.05.2018 17:00:00 - - - - - - -
21.05.2018 16:00:00 33,0 2,0 29 16 NNW - 10
21.05.2018 15:00:00 35,0 -0,5 26 14 NW 1008,1 10
21.05.2018 14:00:00 35,0 -1,0 22 12 WNW - 10
21.05.2018 13:00:00 34,0 1,0 22 12 WNW - 10
21.05.2018 12:00:00 34,0 1,0 11 6 WNW - 10
21.05.2018 11:00:00 32,0 3,0 11 6 SSE - 10
21.05.2018 10:00:00 29,0 4,0 11 6 SSW - 10
21.05.2018 09:00:00 25,8 8,2 11 6 SW 1010,5 10
21.05.2018 08:00:00 23,0 5,0 8 4 SW - 10
21.05.2018 07:00:00 21,0 5,0 8 4 S - 10
21.05.2018 06:00:00 18,6 6,6 11 6 WSW 1009,2 10
21.05.2018 05:00:00 17,0 3,0 13 7 WSW - 10
21.05.2018 04:00:00 21,0 4,0 8 4 S - 10
21.05.2018 03:00:00 21,0 4,0 13 7 WSW - 10
21.05.2018 02:00:00 22,0 4,0 5 3 NNE - 10
21.05.2018 01:00:00 21,0 4,0 8 4 S - 10
21.05.2018 00:00:00 22,2 6,8 0 0 N 1007,6 10
20.05.2018 23:00:00 23,0 2,0 9 5 SW - 10
20.05.2018 22:00:00 27,0 3,0 15 8 W - 10
20.05.2018 21:00:00 28,0 7,6 11 6 W 1006,0 10
20.05.2018 20:00:00 30,0 0,0 16 9 NW - 10
20.05.2018 19:00:00 32,0 0,0 18 10 WNW - 10
20.05.2018 18:00:00 35,2 3,5 26 14 WNW 1006,0 10
20.05.2018 17:00:00 36,0 0,0 24 13 W - 10
20.05.2018 16:00:00 38,0 0,0 29 16 WSW - 10
20.05.2018 15:00:00 37,8 4,5 29 16 WSW 1005,5 10
20.05.2018 14:00:00 37,0 2,0 9 5 SW - 10
20.05.2018 13:00:00 35,0 2,0 9 5 NW - 10
20.05.2018 12:00:00 35,2 6,9 0 0 N 1007,4 15
20.05.2018 11:00:00 32,0 1,0 0 0 N - 10
20.05.2018 10:00:00 32,0 0,0 5 3 ENE - 10
20.05.2018 09:00:00 28,8 7,8 5 3 NNE 1008,3 10
20.05.2018 08:00:00 24,0 4,0 8 4 NNE - 10
20.05.2018 07:00:00 20,0 4,0 18 10 SW - 10
20.05.2018 06:00:00 20,2 3,7 15 8 NNE 1007,9 10
20.05.2018 05:00:00 23,0 0,0 15 8 NE - 10
20.05.2018 04:00:00 22,0 1,0 18 10 NE - 10
20.05.2018 03:00:00 21,0 5,5 15 8 N 1007,8 10
20.05.2018 02:00:00 21,0 3,0 8 4 NNW - 10
20.05.2018 01:00:00 23,0 3,0 15 8 SSE - 10
20.05.2018 00:00:00 23,6 7,9 15 8 SSE 1008,1 10
19.05.2018 23:00:00 26,0 4,0 11 6 W - 10
19.05.2018 22:00:00 26,0 4,0 18 10 WNW - 10
19.05.2018 21:00:00 29,0 7,6 11 6 WNW 1007,5 10
19.05.2018 20:00:00 31,0 3,0 15 8 W - 10
19.05.2018 19:00:00 34,0 1,0 22 12 W - 10
19.05.2018 18:00:00 37,8 3,7 26 14 W 1006,5 10
19.05.2018 17:00:00 38,0 0,0 29 16 SW - 10
19.05.2018 16:00:00 38,0 -1,0 34 18 SW - 10
19.05.2018 15:00:00 37,2 5,6 15 8 SSE 1007,7 10
19.05.2018 14:00:00 37,0 0,0 18 10 SSW - 10
19.05.2018 13:00:00 35,0 0,0 11 6 W - 10
19.05.2018 12:00:00 34,0 5,1 11 6 SW 1009,8 10
19.05.2018 11:00:00 32,0 0,0 11 6 WNW - 10
19.05.2018 10:00:00 30,0 -1,0 11 6 E - 10
19.05.2018 09:00:00 28,0 -1,1 11 6 E 1011,4 10
19.05.2018 08:00:00 24,0 3,0 11 6 NNE - 10
19.05.2018 07:00:00 20,0 3,0 11 6 N - 10
19.05.2018 06:00:00 17,8 1,9 0 0 N 1010,6 10
19.05.2018 05:00:00 17,0 2,0 8 4 NNE - 10
19.05.2018 04:00:00 19,0 3,0 13 7 NNE - 10
19.05.2018 03:00:00 19,8 3,0 16 9 NNE 1010,5 10
19.05.2018 02:00:00 19,0 2,0 11 6 NNE - 10
19.05.2018 01:00:00 20,0 2,0 11 6 NNE - 10
19.05.2018 00:00:00 24,0 1,2 15 8 ENE 1010,0 10
18.05.2018 23:00:00 25,0 1,0 15 8 ENE - 10
18.05.2018 22:00:00 25,0 1,0 11 6 ENE - 10
18.05.2018 21:00:00 26,8 0,8 11 6 ENE 1008,4 10
18.05.2018 20:00:00 29,0 0,0 11 6 NE - 10
18.05.2018 19:00:00 32,0 2,0 11 6 N - 10
18.05.2018 18:00:00 34,1 8,0 15 8 ENE 1009,0 10
18.05.2018 17:00:00 34,0 1,0 15 8 E - 10
18.05.2018 16:00:00 35,0 1,0 0 0 N - 10
18.05.2018 15:00:00 33,8 1,2 11 6 ENE 1010,4 10
18.05.2018 14:00:00 34,0 1,0 8 4 SW - 10
18.05.2018 13:00:00 32,0 1,0 11 6 ESE - 10
18.05.2018 12:00:00 31,0 1,2 11 6 ESE 1012,0 10
18.05.2018 11:00:00 30,0 2,0 8 4 ESE - 10
18.05.2018 10:00:00 29,0 2,0 11 6 E - 10
18.05.2018 09:00:00 27,5 2,7 18 10 NE 1013,5 10
18.05.2018 08:00:00 25,0 4,0 15 8 NE - 10
18.05.2018 07:00:00 20,0 4,0 11 6 NNE - 10
18.05.2018 06:00:00 17,2 3,4 11 6 NNE 1012,7 10
18.05.2018 05:00:00 17,0 4,0 0 0 N - 10
18.05.2018 04:00:00 17,0 4,0 15 8 NNE - 10
18.05.2018 03:00:00 18,1 3,9 11 6 N 1012,2 10
18.05.2018 02:00:00 18,0 4,0 9 5 NE - 10
18.05.2018 01:00:00 20,0 3,0 11 6 NE - 10
18.05.2018 00:00:00 19,7 2,8 0 0 N 1011,7 10
17.05.2018 23:00:00 21,0 2,0 0 0 N - 10
17.05.2018 22:00:00 23,0 1,0 11 6 NE - 10
17.05.2018 21:00:00 27,0 -1,0 15 8 ENE - 10
17.05.2018 20:00:00 28,0 -1,0 15 8 NE - 10
17.05.2018 19:00:00 30,0 0,0 15 8 NE - 10
17.05.2018 18:00:00 32,0 -0,8 11 6 ENE 1010,2 10
17.05.2018 17:00:00 32,0 -2,0 0 0 N - 10
17.05.2018 16:00:00 33,0 -2,0 11 6 NNW - 10
17.05.2018 15:00:00 32,0 -1,0 11 6 NE 1011,8 10
17.05.2018 14:00:00 31,0 -1,0 8 4 SSW - 10
17.05.2018 13:00:00 31,0 0,0 8 4 SSE - 10
17.05.2018 12:00:00 28,0 0,0 11 6 ESE - 10

tt = temperature
td = dewpoint
ff = wind speed
dd = wind direction
ppp = reduced air pressure
vv = visibility

Next stations